Regional Weather Roundup
Issued by NWS

Home | Current Version | Previous Version | Graphics & Text | Print | Product List | Glossary On
Versions: 1 2 3 4 5 6 7 8 9 10 11 12 13 14 15 16 17 18 19 20 21 22 23 24 25 26 27 28 29 30 31 32 33 34 35 36 37 38 39 40 41 42 43 44 45 46 47 48 49 50
000
ASUS45 KSLC 042010
RWRUT

UTAH REGIONAL WEATHER ROUNDUP
NATIONAL WEATHER SERVICE SALT LAKE CITY UT
200 PM MDT FRI SEP 04 2015

UTZ001>011-023>025-042100-

NORTHERN UTAH

CITY           SKY/WX    TMP DP  RH WIND       PRES   REMARKS
BRIGHAM CITY   SUNNY     85  28  12 SW16G29   29.80F
HILL AFB       MOSUNNY   81  35  19 S20G29    29.84F
LOGAN          SUNNY     84  33  16 SW20G29   29.80F
OGDEN          MOSUNNY   84  33  16 SW24G33   29.80F
PROVO AIRPORT  MOSUNNY   84  43  23 S17       29.85F
SALT LAKE CITY MOSUNNY   86  34  15 S29G38    29.79F
VERNAL         PTSUNNY   79  42  26 S14G25    29.97F
WENDOVER       SUNNY     79  36  21 E7        29.77F
HEBER CITY     MOSUNNY   81  32  17 SW14G22   29.91F
WEST JORDAN    MOSUNNY   84  37  18 SE20G33   29.84F

$$

UTZ012>022-026-027-042100-

SOUTHERN/CENTRAL UTAH

CITY           SKY/WX    TMP DP  RH WIND       PRES   REMARKS
BLANDING       PTSUNNY   66  58  77 N3        30.18F
BRYCE CANYON   PTSUNNY   70  37  29 S20G30    30.14F
CEDAR CITY     MOSUNNY   78  40  25 S23G39    29.98F
DELTA          SUNNY     84  35  17 S24G38    29.87F
HANKSVILLE     PTSUNNY   86  36  16 SW18G28   29.94F
MILFORD        MOSUNNY   82  40  22 S22G37    29.90F
MOAB/CYNLANDS  PTSUNNY   82  47  29 S18       29.94F
PRICE          SUNNY     79  42  26 S20       29.99F
ST GEORGE      CLEAR     91  45  19 SW22G31   29.84F
KANAB          MOSUNNY   81  48  32 S15G23    30.05F

$$

REGIONAL REPORTS     COLORADO/ARIZONA

CITY           SKY/WX    TMP DP  RH WIND       PRES   REMARKS
CRAIG, CO      PTSUNNY   77  43  29 CALM      30.06F
GRAND JUNCTION CLOUDY    75  48  38 SE12      30.01F
RIFLE          CLOUDY    72  53  51 NE6       30.06F
MONTROSE       CLOUDY    70  54  56 S8        30.12R
CORTEZ         LGT RAIN  68  56  65 SW5G18    30.10S
PAGE, AZ       MOSUNNY   84  44  24 VRB3      29.94F
GRAND CANYON   MOSUNNY   75  42  30 SW15      30.13F
KINGMAN        SUNNY     89  47  23 SW25G31   29.91F
FLAGSTAFF      MOSUNNY   69  47  45 S12G22    30.18F

$$

REGIONAL REPORTS    NEVADA/IDAHO/WYOMING

CITY           SKY/WX    TMP DP  RH WIND       PRES   REMARKS
LAS VEGAS, NV  MOSUNNY   92  49  22 S12G26    29.73F
ELY            MOSUNNY   75  31  19 S26G36    29.91F
ELKO           SUNNY     73  31  21 SW6       29.82F
POCATELLO, ID  MOSUNNY   72  42  34 W6        29.82F
BURLEY         PTSUNNY   71  40  32 VRB3      29.79F
EVANSTON, WY   SUNNY     77  26  15 SW25G39   29.99F
ROCK SPRINGS   MOSUNNY   77  36  22 S30G37    30.00F
KEMMERER       MOSUNNY   73  21  14 S18G30    30.02F

$$



USA.gov is the U.S. government's official web portal to all federal, state and local government web resources and services.